Year,Month,Day,Hour,Minute,Value (Times are PST for temperature in C)
2014,06,21,00,00,8.70
2014,06,21,00,01,8.70
2014,06,21,00,02,8.70
2014,06,21,00,03,8.60
2014,06,21,00,04,8.70
2014,06,21,00,05,8.70
2014,06,21,00,06,8.60
2014,06,21,00,07,8.60
2014,06,21,00,08,8.50
2014,06,21,00,09,8.50
2014,06,21,00,10,8.50
2014,06,21,00,11,8.40
2014,06,21,00,12,8.40
2014,06,21,00,13,8.40
2014,06,21,00,14,8.40
2014,06,21,00,15,8.40
2014,06,21,00,16,8.40
2014,06,21,00,17,8.40
2014,06,21,00,18,8.40
2014,06,21,00,19,8.40
2014,06,21,00,20,8.40
2014,06,21,00,21,8.40
2014,06,21,00,22,8.50
2014,06,21,00,23,8.50
2014,06,21,00,24,8.50
2014,06,21,00,25,8.50
2014,06,21,00,26,8.40
2014,06,21,00,27,8.40
2014,06,21,00,28,8.40
2014,06,21,00,29,8.50
2014,06,21,00,30,8.50
2014,06,21,00,31,8.50
2014,06,21,00,32,8.50
2014,06,21,00,33,8.50
2014,06,21,00,34,8.50
2014,06,21,00,35,8.50
2014,06,21,00,36,8.50
2014,06,21,00,37,8.50
2014,06,21,00,38,8.50
2014,06,21,00,39,8.50
2014,06,21,00,40,8.50
2014,06,21,00,41,8.50
2014,06,21,00,42,8.50
2014,06,21,00,43,8.50
2014,06,21,00,44,8.50
2014,06,21,00,45,8.60
2014,06,21,00,46,8.60
2014,06,21,00,47,8.60
2014,06,21,00,48,8.60
2014,06,21,00,49,8.70
2014,06,21,00,50,8.70
2014,06,21,00,51,8.70
2014,06,21,00,52,8.60
2014,06,21,00,53,8.60
2014,06,21,00,54,8.50
2014,06,21,00,55,8.40
2014,06,21,00,56,8.40
2014,06,21,00,57,8.40
2014,06,21,00,58,8.40
2014,06,21,00,59,8.30
2014,06,21,01,00,8.30
2014,06,21,01,01,8.20
2014,06,21,01,02,8.20
2014,06,21,01,03,8.20
2014,06,21,01,04,8.20
2014,06,21,01,05,8.20
2014,06,21,01,06,8.20
2014,06,21,01,07,8.20
2014,06,21,01,08,8.20
2014,06,21,01,09,8.20
2014,06,21,01,10,8.20
2014,06,21,01,11,8.20
2014,06,21,01,12,8.20
2014,06,21,01,13,8.30
2014,06,21,01,14,8.40
2014,06,21,01,15,8.50
2014,06,21,01,16,8.60
2014,06,21,01,17,8.60
2014,06,21,01,18,8.60
2014,06,21,01,19,8.60
2014,06,21,01,20,8.50
2014,06,21,01,21,8.50
2014,06,21,01,22,8.40
2014,06,21,01,23,8.40
2014,06,21,01,24,8.40
2014,06,21,01,25,8.40
2014,06,21,01,26,8.40
2014,06,21,01,27,8.40
2014,06,21,01,28,8.30
2014,06,21,01,29,8.20
2014,06,21,01,30,8.20
2014,06,21,01,31,8.20
2014,06,21,01,32,8.20
2014,06,21,01,33,8.10
2014,06,21,01,34,8.20
2014,06,21,01,35,8.20
2014,06,21,01,36,8.20
2014,06,21,01,37,8.20
2014,06,21,01,38,8.20
2014,06,21,01,39,8.30
2014,06,21,01,40,8.30
2014,06,21,01,41,8.20
2014,06,21,01,42,8.20
2014,06,21,01,43,8.20
2014,06,21,01,44,8.20
2014,06,21,01,45,8.30
2014,06,21,01,46,8.30
2014,06,21,01,47,8.30
2014,06,21,01,48,8.20
2014,06,21,01,49,8.20
2014,06,21,01,50,8.20
2014,06,21,01,51,8.20
2014,06,21,01,52,8.20
2014,06,21,01,53,8.20
2014,06,21,01,54,8.20
2014,06,21,01,55,8.20
2014,06,21,01,56,8.20
2014,06,21,01,57,8.10
2014,06,21,01,58,8.10
2014,06,21,01,59,8.00
2014,06,21,02,00,8.00
2014,06,21,02,01,7.90
2014,06,21,02,02,7.90
2014,06,21,02,03,7.90
2014,06,21,02,04,7.90
2014,06,21,02,05,7.90
2014,06,21,02,06,7.80
2014,06,21,02,07,7.80
2014,06,21,02,08,7.80
2014,06,21,02,09,7.80
2014,06,21,02,10,7.80
2014,06,21,02,11,7.80
2014,06,21,02,12,7.80
2014,06,21,02,13,7.80
2014,06,21,02,14,7.80
2014,06,21,02,15,7.80
2014,06,21,02,16,7.80
2014,06,21,02,17,7.80
2014,06,21,02,18,7.80
2014,06,21,02,19,7.80
2014,06,21,02,20,7.80
2014,06,21,02,21,7.80
2014,06,21,02,22,7.80
2014,06,21,02,23,7.90
2014,06,21,02,24,8.10
2014,06,21,02,25,8.20
2014,06,21,02,26,8.40
2014,06,21,02,27,8.50
2014,06,21,02,28,8.50
2014,06,21,02,29,8.40
2014,06,21,02,30,8.30
2014,06,21,02,31,8.10
2014,06,21,02,32,8.00
2014,06,21,02,33,7.90
2014,06,21,02,34,7.80
2014,06,21,02,35,7.80
2014,06,21,02,36,7.80
2014,06,21,02,37,7.80
2014,06,21,02,38,7.70
2014,06,21,02,39,7.60
2014,06,21,02,40,7.60
2014,06,21,02,41,7.50
2014,06,21,02,42,7.50
2014,06,21,02,43,7.50
2014,06,21,02,44,7.40
2014,06,21,02,45,7.40
2014,06,21,02,46,7.40
2014,06,21,02,47,7.40
2014,06,21,02,48,7.40
2014,06,21,02,49,7.40
2014,06,21,02,50,7.40
2014,06,21,02,51,7.40
2014,06,21,02,52,7.40
2014,06,21,02,53,7.40
2014,06,21,02,54,7.40
2014,06,21,02,55,7.40
2014,06,21,02,56,7.40
2014,06,21,02,57,7.40
2014,06,21,02,58,7.40
2014,06,21,02,59,7.40
2014,06,21,03,00,7.40
2014,06,21,03,01,7.30
2014,06,21,03,02,7.30
2014,06,21,03,06,7.30
2014,06,21,03,07,7.30
2014,06,21,03,08,7.30
2014,06,21,03,09,7.40
2014,06,21,03,10,7.40
2014,06,21,03,11,7.40
2014,06,21,03,12,7.40
2014,06,21,03,13,7.40
2014,06,21,03,14,7.40
2014,06,21,03,15,7.40
2014,06,21,03,16,7.40
2014,06,21,03,17,7.30
2014,06,21,03,18,7.40
2014,06,21,03,19,7.50
2014,06,21,03,20,7.60
2014,06,21,03,21,7.70
2014,06,21,03,22,7.80
2014,06,21,03,23,7.90
2014,06,21,03,24,7.90
2014,06,21,03,25,7.80
2014,06,21,03,26,7.70
2014,06,21,03,27,7.60
2014,06,21,03,28,7.50
2014,06,21,03,29,7.30
2014,06,21,03,30,7.30
2014,06,21,03,31,7.20
2014,06,21,03,32,7.10
2014,06,21,03,33,7.10
2014,06,21,03,34,7.10
2014,06,21,03,35,7.10
2014,06,21,03,36,7.10
2014,06,21,03,37,7.20
2014,06,21,03,38,7.20
2014,06,21,03,39,7.20
2014,06,21,03,40,7.20
2014,06,21,03,41,7.20
2014,06,21,03,42,7.20
2014,06,21,03,43,7.20
2014,06,21,03,44,7.20
2014,06,21,03,45,7.20
2014,06,21,03,46,7.20
2014,06,21,03,47,7.20
2014,06,21,03,48,7.20
2014,06,21,03,49,7.20
2014,06,21,03,50,7.20
2014,06,21,03,51,7.10
2014,06,21,03,52,7.10
2014,06,21,03,53,7.00
2014,06,21,03,54,6.90
2014,06,21,03,55,6.90
2014,06,21,03,56,6.90
2014,06,21,03,57,6.90
2014,06,21,03,58,6.90
2014,06,21,03,59,7.00
2014,06,21,04,00,7.10
2014,06,21,04,01,7.10
2014,06,21,04,02,7.10
2014,06,21,04,03,7.10
2014,06,21,04,04,7.10
2014,06,21,04,05,7.10
2014,06,21,04,06,7.20
2014,06,21,04,07,7.20
2014,06,21,04,08,7.30
2014,06,21,04,09,7.30
2014,06,21,04,10,7.40
2014,06,21,04,11,7.30
2014,06,21,04,12,7.30
2014,06,21,04,13,7.30
2014,06,21,04,14,7.20
2014,06,21,04,15,7.10
2014,06,21,04,16,7.10
2014,06,21,04,17,7.10
2014,06,21,04,18,7.10
2014,06,21,04,19,7.10
2014,06,21,04,20,7.10
2014,06,21,04,21,7.10
2014,06,21,04,22,7.10
2014,06,21,04,23,7.10
2014,06,21,04,24,7.00
2014,06,21,04,25,7.00
2014,06,21,04,26,6.90
2014,06,21,04,27,6.90
2014,06,21,04,28,6.90
2014,06,21,04,29,6.90
2014,06,21,04,30,6.80
2014,06,21,04,31,6.80
2014,06,21,04,32,6.80
2014,06,21,04,33,6.70
2014,06,21,04,34,6.80
2014,06,21,04,35,6.80
2014,06,21,04,36,6.80
2014,06,21,04,37,6.80
2014,06,21,04,38,6.70
2014,06,21,04,39,6.70
2014,06,21,04,40,6.70
2014,06,21,04,41,6.70
2014,06,21,04,42,6.70
2014,06,21,04,43,6.70
2014,06,21,04,44,6.70
2014,06,21,04,45,6.70
2014,06,21,04,46,6.60
2014,06,21,04,47,6.60
2014,06,21,04,48,6.60
2014,06,21,04,49,6.70
2014,06,21,04,50,6.70
2014,06,21,04,51,6.70
2014,06,21,04,52,6.70
2014,06,21,04,53,6.60
2014,06,21,04,54,6.60
2014,06,21,04,55,6.60
2014,06,21,04,56,6.60
2014,06,21,04,57,6.60
2014,06,21,04,58,6.60
2014,06,21,04,59,6.60
2014,06,21,05,00,6.60
2014,06,21,05,01,6.60
2014,06,21,05,02,6.60
2014,06,21,05,03,6.60
2014,06,21,05,04,6.60
2014,06,21,05,05,6.60
2014,06,21,05,06,6.60
2014,06,21,05,07,6.60
2014,06,21,05,08,6.60
2014,06,21,05,09,6.60
2014,06,21,05,10,6.60
2014,06,21,05,11,6.60
2014,06,21,05,12,6.60
2014,06,21,05,13,6.60
2014,06,21,05,14,6.60
2014,06,21,05,15,6.60
2014,06,21,05,16,6.60
2014,06,21,05,17,6.50
2014,06,21,05,18,6.50
2014,06,21,05,19,6.50
2014,06,21,05,20,6.40
2014,06,21,05,21,6.40
2014,06,21,05,22,6.40
2014,06,21,05,23,6.40
2014,06,21,05,24,6.40
2014,06,21,05,25,6.40
2014,06,21,05,26,6.40
2014,06,21,05,27,6.40
2014,06,21,05,28,6.30
2014,06,21,05,29,6.30
2014,06,21,05,30,6.20
2014,06,21,05,31,6.20
2014,06,21,05,32,6.10
2014,06,21,05,33,6.10
2014,06,21,05,34,6.10
2014,06,21,05,35,6.10
2014,06,21,05,36,6.10
2014,06,21,05,37,6.20
2014,06,21,05,38,6.30
2014,06,21,05,39,6.30
2014,06,21,05,40,6.30
2014,06,21,05,41,6.30
2014,06,21,05,42,6.40
2014,06,21,05,43,6.40
2014,06,21,05,44,6.40
2014,06,21,05,45,6.40
2014,06,21,05,46,6.40
2014,06,21,05,47,6.40
2014,06,21,05,48,6.40
2014,06,21,05,49,6.40
2014,06,21,05,50,6.40
2014,06,21,05,51,6.40
2014,06,21,05,52,6.40
2014,06,21,05,53,6.40
2014,06,21,05,54,6.40
2014,06,21,05,55,6.40
2014,06,21,05,56,6.40
2014,06,21,05,57,6.40
2014,06,21,05,58,6.40
2014,06,21,05,59,6.40
2014,06,21,06,00,6.30
2014,06,21,06,01,6.30
2014,06,21,06,02,6.30
2014,06,21,06,03,6.40
2014,06,21,06,04,6.40
2014,06,21,06,05,6.40
2014,06,21,06,06,6.40
2014,06,21,06,07,6.40
2014,06,21,06,08,6.40
2014,06,21,06,09,6.40
2014,06,21,06,10,6.40
2014,06,21,06,11,6.30
2014,06,21,06,12,6.30
2014,06,21,06,13,6.30
2014,06,21,06,14,6.30
2014,06,21,06,15,6.30
2014,06,21,06,16,6.50
2014,06,21,06,17,6.70
2014,06,21,06,18,6.90
2014,06,21,06,19,7.10
2014,06,21,06,20,7.20
2014,06,21,06,21,7.30
2014,06,21,06,22,7.50
2014,06,21,06,23,7.50
2014,06,21,06,24,7.60
2014,06,21,06,25,7.60
2014,06,21,06,26,7.60
2014,06,21,06,27,7.60
2014,06,21,06,28,7.70
2014,06,21,06,29,7.80
2014,06,21,06,30,7.80
2014,06,21,06,31,7.80
2014,06,21,06,32,7.80
2014,06,21,06,33,7.90
2014,06,21,06,34,7.90
2014,06,21,06,35,7.90
2014,06,21,06,36,8.00
2014,06,21,06,37,8.00
2014,06,21,06,38,8.10
2014,06,21,06,39,8.10
2014,06,21,06,40,8.10
2014,06,21,06,41,8.20
2014,06,21,06,42,8.20
2014,06,21,06,43,8.20
2014,06,21,06,44,8.20
2014,06,21,06,45,8.20
2014,06,21,06,46,8.20
2014,06,21,06,47,8.20
2014,06,21,06,48,8.30
2014,06,21,06,49,8.30
2014,06,21,06,50,8.40
2014,06,21,06,51,8.50
2014,06,21,06,52,8.50
2014,06,21,06,53,8.60
2014,06,21,06,54,8.60
2014,06,21,06,55,8.70
2014,06,21,06,56,8.70
2014,06,21,06,57,8.80
2014,06,21,06,58,8.80
2014,06,21,06,59,8.90
2014,06,21,07,00,8.90
2014,06,21,07,01,9.00
2014,06,21,07,02,9.00
2014,06,21,07,03,9.10
2014,06,21,07,04,9.10
2014,06,21,07,05,9.10
2014,06,21,07,06,9.20
2014,06,21,07,07,9.20
2014,06,21,07,08,9.20
2014,06,21,07,09,9.20
2014,06,21,07,10,9.30
2014,06,21,07,11,9.30
2014,06,21,07,12,9.40
2014,06,21,07,13,9.40
2014,06,21,07,14,9.50
2014,06,21,07,15,9.50
2014,06,21,07,16,9.50
2014,06,21,07,17,9.50
2014,06,21,07,18,9.60
2014,06,21,07,19,9.60
2014,06,21,07,20,9.70
2014,06,21,07,21,9.70
2014,06,21,07,22,9.70
2014,06,21,07,23,9.80
2014,06,21,07,24,9.80
2014,06,21,07,25,9.90
2014,06,21,07,26,9.90
2014,06,21,07,27,10.00
2014,06,21,07,28,10.00
2014,06,21,07,29,10.10
2014,06,21,07,30,10.10
2014,06,21,07,31,10.20
2014,06,21,07,32,10.20
2014,06,21,07,33,10.30
2014,06,21,07,34,10.40
2014,06,21,07,35,10.50
2014,06,21,07,36,10.60
2014,06,21,07,37,10.60
2014,06,21,07,38,10.70
2014,06,21,07,39,10.70
2014,06,21,07,40,10.70
2014,06,21,07,41,10.80
2014,06,21,07,42,10.80
2014,06,21,07,43,10.90
2014,06,21,07,44,10.90
2014,06,21,07,45,11.00
2014,06,21,07,46,11.00
2014,06,21,07,47,11.10
2014,06,21,07,48,11.10
2014,06,21,07,49,11.20
2014,06,21,07,50,11.20
2014,06,21,07,51,11.30
2014,06,21,07,52,11.30
2014,06,21,07,53,11.40
2014,06,21,07,54,11.50
2014,06,21,07,55,11.60
2014,06,21,07,56,11.60
2014,06,21,07,57,11.70
2014,06,21,07,58,11.70
2014,06,21,07,59,11.70
2014,06,21,08,00,11.70
2014,06,21,08,01,11.70
2014,06,21,08,02,11.70
2014,06,21,08,03,11.80
2014,06,21,08,04,11.80
2014,06,21,08,05,11.80
2014,06,21,08,06,11.90
2014,06,21,08,07,12.00
2014,06,21,08,08,12.00
2014,06,21,08,09,12.10
2014,06,21,08,10,12.20
2014,06,21,08,11,12.30
2014,06,21,08,12,12.40
2014,06,21,08,13,12.40
2014,06,21,08,14,12.50
2014,06,21,08,15,12.60
2014,06,21,08,16,12.60
2014,06,21,08,17,12.70
2014,06,21,08,18,12.70
2014,06,21,08,19,12.80
2014,06,21,08,20,12.90
2014,06,21,08,21,13.00
2014,06,21,08,22,13.10
2014,06,21,08,23,13.30
2014,06,21,08,24,13.30
2014,06,21,08,25,13.40
2014,06,21,08,26,13.40
2014,06,21,08,27,13.40
2014,06,21,08,28,13.50
2014,06,21,08,29,13.60
2014,06,21,08,30,13.60
2014,06,21,08,31,13.70
2014,06,21,08,32,13.70
2014,06,21,08,33,13.70
2014,06,21,08,34,13.70
2014,06,21,08,35,13.60
2014,06,21,08,36,13.60
2014,06,21,08,37,13.60
2014,06,21,08,38,13.60
2014,06,21,08,39,13.70
2014,06,21,08,40,13.80
2014,06,21,08,41,13.80
2014,06,21,08,42,13.80
2014,06,21,08,43,13.80
2014,06,21,08,44,13.90
2014,06,21,08,45,14.10
2014,06,21,08,46,14.10
2014,06,21,08,47,14.20
2014,06,21,08,48,14.20
2014,06,21,08,49,14.30
2014,06,21,08,50,14.30
2014,06,21,08,51,14.40
2014,06,21,08,52,14.50
2014,06,21,08,53,14.50
2014,06,21,08,54,14.50
2014,06,21,08,55,14.40
2014,06,21,08,56,14.40
2014,06,21,08,57,14.50
2014,06,21,08,58,14.60
2014,06,21,08,59,14.60
2014,06,21,09,00,14.60
2014,06,21,09,01,14.60
2014,06,21,09,02,14.70
2014,06,21,09,03,14.70
2014,06,21,09,04,14.70
2014,06,21,09,05,14.70
2014,06,21,09,06,14.70
2014,06,21,09,07,14.70
2014,06,21,09,08,14.70
2014,06,21,09,09,14.70
2014,06,21,09,10,14.70
2014,06,21,09,11,14.80
2014,06,21,09,12,14.80
2014,06,21,09,13,14.80
2014,06,21,09,14,14.90
2014,06,21,09,15,14.90
2014,06,21,09,16,14.90
2014,06,21,09,17,14.80
2014,06,21,09,18,14.80
2014,06,21,09,19,14.80
2014,06,21,09,20,14.80
2014,06,21,09,21,14.80
2014,06,21,09,22,14.80
2014,06,21,09,23,14.80
2014,06,21,09,24,14.90
2014,06,21,09,25,14.90
2014,06,21,09,26,14.90
2014,06,21,09,27,14.90
2014,06,21,09,28,14.90
2014,06,21,09,29,15.00
2014,06,21,09,30,15.00
2014,06,21,09,31,15.00
2014,06,21,09,32,14.90
2014,06,21,09,33,14.90
2014,06,21,09,34,14.80
2014,06,21,09,35,14.80
2014,06,21,09,36,14.90
2014,06,21,09,37,14.90
2014,06,21,09,38,15.00
2014,06,21,09,39,15.10
2014,06,21,09,40,15.10
2014,06,21,09,41,15.20
2014,06,21,09,42,15.20
2014,06,21,09,43,15.20
2014,06,21,09,44,15.10
2014,06,21,09,45,15.10
2014,06,21,09,46,15.20
2014,06,21,09,47,15.20
2014,06,21,09,48,15.30
2014,06,21,09,49,15.30
2014,06,21,09,50,15.30
2014,06,21,09,51,15.30
2014,06,21,09,52,15.40
2014,06,21,09,53,15.40
2014,06,21,09,54,15.40
2014,06,21,09,55,15.40
2014,06,21,09,56,15.40
2014,06,21,09,57,15.40
2014,06,21,09,58,15.50
2014,06,21,09,59,15.60
2014,06,21,10,00,15.60
2014,06,21,10,01,15.50
2014,06,21,10,02,15.50
2014,06,21,10,03,15.50
2014,06,21,10,04,15.50
2014,06,21,10,05,15.50
2014,06,21,10,06,15.50
2014,06,21,10,07,15.60
2014,06,21,10,08,15.60
2014,06,21,10,09,15.60
2014,06,21,10,10,15.70
2014,06,21,10,11,15.70
2014,06,21,10,12,15.70
2014,06,21,10,13,15.80
2014,06,21,10,14,15.80
2014,06,21,10,15,15.80
2014,06,21,10,16,15.80
2014,06,21,10,17,15.90
2014,06,21,10,18,15.90
2014,06,21,10,19,15.90
2014,06,21,10,20,16.00
2014,06,21,10,21,16.00
2014,06,21,10,22,16.10
2014,06,21,10,23,16.10
2014,06,21,10,24,16.10
2014,06,21,10,25,16.20
2014,06,21,10,26,16.20
2014,06,21,10,27,16.30
2014,06,21,10,28,16.30
2014,06,21,10,29,16.30
2014,06,21,10,30,16.30
2014,06,21,10,31,16.40
2014,06,21,10,32,16.40
2014,06,21,10,33,16.50
2014,06,21,10,34,16.60
2014,06,21,10,35,16.60
2014,06,21,10,36,16.50
2014,06,21,10,37,16.50
2014,06,21,10,38,16.50
2014,06,21,10,39,16.40
2014,06,21,10,40,16.40
2014,06,21,10,41,16.40
2014,06,21,10,42,16.50
2014,06,21,10,43,16.50
2014,06,21,10,44,16.60
2014,06,21,10,45,16.70
2014,06,21,10,46,16.70
2014,06,21,10,47,16.70
2014,06,21,10,48,16.80
2014,06,21,10,49,16.80
2014,06,21,10,50,16.70
2014,06,21,10,51,16.70
2014,06,21,10,52,16.70
2014,06,21,10,53,16.70
2014,06,21,10,54,16.80
2014,06,21,10,55,16.80
2014,06,21,10,56,16.80
2014,06,21,10,57,16.80
2014,06,21,10,58,16.80
2014,06,21,10,59,16.80
2014,06,21,11,00,16.90
2014,06,21,11,01,16.90
2014,06,21,11,02,16.90
2014,06,21,11,03,17.00
2014,06,21,11,04,17.00
2014,06,21,11,05,17.10
2014,06,21,11,06,17.10
2014,06,21,11,07,17.10
2014,06,21,11,08,17.10
2014,06,21,11,09,17.10
2014,06,21,11,10,17.10
2014,06,21,11,11,17.20
2014,06,21,11,12,17.30
2014,06,21,11,13,17.30
2014,06,21,11,14,17.20
2014,06,21,11,15,17.20
2014,06,21,11,16,17.20
2014,06,21,11,17,17.20
2014,06,21,11,18,17.10
2014,06,21,11,19,17.10
2014,06,21,11,20,17.10
2014,06,21,11,21,17.20
2014,06,21,11,22,17.30
2014,06,21,11,23,17.30
2014,06,21,11,24,17.30
2014,06,21,11,25,17.30
2014,06,21,11,26,17.30
2014,06,21,11,27,17.40
2014,06,21,11,28,17.40
2014,06,21,11,29,17.40
2014,06,21,11,30,17.30
2014,06,21,11,31,17.20
2014,06,21,11,32,17.20
2014,06,21,11,33,17.20
2014,06,21,11,34,17.20
2014,06,21,11,35,17.30
2014,06,21,11,36,17.30
2014,06,21,11,37,17.40
2014,06,21,11,38,17.50
2014,06,21,11,39,17.50
2014,06,21,11,40,17.60
2014,06,21,11,41,17.60
2014,06,21,11,42,17.70
2014,06,21,11,43,17.70
2014,06,21,11,44,17.70
2014,06,21,11,45,17.70
2014,06,21,11,46,17.70
2014,06,21,11,47,17.70
2014,06,21,11,48,17.70
2014,06,21,11,49,17.70
2014,06,21,11,50,17.80
2014,06,21,11,51,17.80
2014,06,21,11,52,17.80
2014,06,21,11,53,17.80
2014,06,21,11,54,17.80
2014,06,21,11,55,17.80
2014,06,21,11,56,17.70
2014,06,21,11,57,17.70
2014,06,21,11,58,17.60
2014,06,21,11,59,17.60
2014,06,21,12,00,17.60
2014,06,21,12,01,17.50
2014,06,21,12,02,17.50
2014,06,21,12,03,17.50
2014,06,21,12,04,17.40
2014,06,21,12,05,17.40
2014,06,21,12,06,17.40
2014,06,21,12,07,17.50
2014,06,21,12,08,17.50
2014,06,21,12,09,17.50
2014,06,21,12,10,17.60
2014,06,21,12,11,17.60
2014,06,21,12,12,17.60
2014,06,21,12,13,17.70
2014,06,21,12,14,17.70
2014,06,21,12,15,17.70
2014,06,21,12,16,17.80
2014,06,21,12,17,17.90
2014,06,21,12,18,17.90
2014,06,21,12,19,17.90
2014,06,21,12,20,17.90
2014,06,21,12,21,17.90
2014,06,21,12,22,17.90
2014,06,21,12,23,17.90
2014,06,21,12,24,18.00
2014,06,21,12,25,18.00
2014,06,21,12,26,18.00
2014,06,21,12,27,18.00
2014,06,21,12,28,18.00
2014,06,21,12,29,18.10
2014,06,21,12,30,18.10
2014,06,21,12,31,18.10
2014,06,21,12,32,18.10
2014,06,21,12,33,18.10
2014,06,21,12,34,18.10
2014,06,21,12,35,18.10
2014,06,21,12,36,18.10
2014,06,21,12,37,18.10
2014,06,21,12,38,18.00
2014,06,21,12,39,17.90
2014,06,21,12,40,17.80
2014,06,21,12,41,17.80
2014,06,21,12,42,17.80
2014,06,21,12,43,17.80
2014,06,21,12,44,17.80
2014,06,21,12,45,17.80
2014,06,21,12,46,17.70
2014,06,21,12,47,17.80
2014,06,21,12,48,17.80
2014,06,21,12,49,17.80
2014,06,21,12,50,17.80
2014,06,21,12,51,17.80
2014,06,21,12,52,17.70
2014,06,21,12,53,17.80
2014,06,21,12,54,17.80
2014,06,21,12,55,17.70
2014,06,21,12,56,17.70
2014,06,21,12,57,17.60
2014,06,21,12,58,17.60
2014,06,21,12,59,17.70
2014,06,21,13,00,17.70
2014,06,21,13,01,17.70
2014,06,21,13,02,17.70
2014,06,21,13,03,17.70
2014,06,21,13,04,17.70
2014,06,21,13,05,17.80
2014,06,21,13,06,17.80
2014,06,21,13,07,17.80
2014,06,21,13,08,17.80
2014,06,21,13,09,17.90
2014,06,21,13,10,17.90
2014,06,21,13,11,17.80
2014,06,21,13,12,17.80
2014,06,21,13,13,17.90
2014,06,21,13,14,17.90
2014,06,21,13,15,17.90
2014,06,21,13,16,17.90
2014,06,21,13,17,17.80
2014,06,21,13,18,17.80
2014,06,21,13,19,17.90
2014,06,21,13,20,17.90
2014,06,21,13,21,17.90
2014,06,21,13,22,17.90
2014,06,21,13,23,17.90
2014,06,21,13,24,17.90
2014,06,21,13,25,17.90
2014,06,21,13,26,18.00
2014,06,21,13,27,18.10
2014,06,21,13,28,18.20
2014,06,21,13,29,18.20
2014,06,21,13,30,18.20
2014,06,21,13,31,18.20
2014,06,21,13,32,18.20
2014,06,21,13,33,18.20
2014,06,21,13,34,18.20
2014,06,21,13,35,18.20
2014,06,21,13,36,18.30
2014,06,21,13,37,18.30
2014,06,21,13,38,18.30
2014,06,21,13,39,18.30
2014,06,21,13,40,18.30
2014,06,21,13,41,18.40
2014,06,21,13,42,18.40
2014,06,21,13,43,18.50
2014,06,21,13,44,18.60
2014,06,21,13,45,18.70
2014,06,21,13,46,18.70
2014,06,21,13,47,18.70
2014,06,21,13,48,18.80
2014,06,21,13,49,18.80
2014,06,21,13,50,18.90
2014,06,21,13,51,18.90
2014,06,21,13,52,18.90
2014,06,21,13,53,19.00
2014,06,21,13,54,19.00
2014,06,21,13,55,19.00
2014,06,21,13,56,19.00
2014,06,21,13,57,19.00
2014,06,21,13,58,19.00
2014,06,21,13,59,18.90
2014,06,21,14,00,18.90
2014,06,21,14,01,18.90
2014,06,21,14,02,19.00
2014,06,21,14,03,19.00
2014,06,21,14,04,18.90
2014,06,21,14,05,18.90
2014,06,21,14,06,18.90
2014,06,21,14,07,19.00
2014,06,21,14,08,19.00
2014,06,21,14,09,19.00
2014,06,21,14,10,19.00
2014,06,21,14,11,19.00
2014,06,21,14,12,19.00
2014,06,21,14,13,19.00
2014,06,21,14,14,18.90
2014,06,21,14,15,19.00
2014,06,21,14,16,19.00
2014,06,21,14,17,19.00
2014,06,21,14,18,19.10
2014,06,21,14,19,19.10
2014,06,21,14,20,19.10
2014,06,21,14,21,19.10
2014,06,21,14,22,19.20
2014,06,21,14,23,19.20
2014,06,21,14,24,19.20
2014,06,21,14,25,19.20
2014,06,21,14,26,19.20
2014,06,21,14,27,19.20
2014,06,21,14,28,19.20
2014,06,21,14,29,19.20
2014,06,21,14,30,19.30
2014,06,21,14,31,19.30
2014,06,21,14,32,19.30
2014,06,21,14,33,19.40
2014,06,21,14,34,19.40
2014,06,21,14,35,19.40
2014,06,21,14,36,19.40
2014,06,21,14,37,19.50
2014,06,21,14,38,19.50
2014,06,21,14,39,19.50
2014,06,21,14,40,19.40
2014,06,21,14,41,19.40
2014,06,21,14,42,19.30
2014,06,21,14,43,19.30
2014,06,21,14,44,19.20
2014,06,21,14,45,19.20
2014,06,21,14,46,19.30
2014,06,21,14,47,19.30
2014,06,21,14,48,19.30
2014,06,21,14,49,19.30
2014,06,21,14,50,19.30
2014,06,21,14,51,19.30
2014,06,21,14,52,19.30
2014,06,21,14,53,19.20
2014,06,21,14,54,19.20
2014,06,21,14,55,19.20
2014,06,21,14,56,19.20
2014,06,21,14,57,19.20
2014,06,21,14,58,19.30
2014,06,21,14,59,19.20
2014,06,21,15,00,19.30
2014,06,21,15,01,19.20
2014,06,21,15,02,19.20
2014,06,21,15,03,19.20
2014,06,21,15,04,19.20
2014,06,21,15,05,19.30
2014,06,21,15,06,19.30
2014,06,21,15,07,19.30
2014,06,21,15,08,19.30
2014,06,21,15,09,19.30
2014,06,21,15,10,19.30
2014,06,21,15,11,19.30
2014,06,21,15,12,19.30
2014,06,21,15,13,19.30
2014,06,21,15,14,19.30
2014,06,21,15,15,19.20
2014,06,21,15,16,19.20
2014,06,21,15,17,19.20
2014,06,21,15,18,19.30
2014,06,21,15,19,19.30
2014,06,21,15,20,19.40
2014,06,21,15,21,19.50
2014,06,21,15,22,19.60
2014,06,21,15,23,19.60
2014,06,21,15,24,19.60
2014,06,21,15,25,19.60
2014,06,21,15,26,19.60
2014,06,21,15,27,19.60
2014,06,21,15,28,19.60
2014,06,21,15,29,19.60
2014,06,21,15,30,19.70
2014,06,21,15,31,19.70
2014,06,21,15,32,19.70
2014,06,21,15,33,19.80
2014,06,21,15,34,19.80
2014,06,21,15,35,19.80
2014,06,21,15,36,19.80
2014,06,21,15,37,19.80
2014,06,21,15,38,19.80
2014,06,21,15,39,19.90
2014,06,21,15,40,19.90
2014,06,21,15,41,19.90
2014,06,21,15,42,19.80
2014,06,21,15,43,19.90
2014,06,21,15,44,19.90
2014,06,21,15,45,19.90
2014,06,21,15,46,19.90
2014,06,21,15,47,19.90
2014,06,21,15,48,19.90
2014,06,21,15,49,19.90
2014,06,21,15,50,19.90
2014,06,21,15,51,19.90
2014,06,21,15,52,19.90
2014,06,21,15,53,19.80
2014,06,21,15,54,19.90
2014,06,21,15,55,19.90
2014,06,21,15,56,19.90
2014,06,21,15,57,19.90
2014,06,21,15,58,19.90
2014,06,21,15,59,19.90
2014,06,21,16,00,20.00
2014,06,21,16,01,19.90
2014,06,21,16,02,19.90
2014,06,21,16,03,19.80
2014,06,21,16,04,19.80
2014,06,21,16,05,19.80
2014,06,21,16,06,19.90
2014,06,21,16,07,19.90
2014,06,21,16,08,19.90
2014,06,21,16,09,19.90
2014,06,21,16,10,19.90
2014,06,21,16,11,19.90
2014,06,21,16,12,19.90
2014,06,21,16,13,20.00
2014,06,21,16,14,19.90
2014,06,21,16,15,19.90
2014,06,21,16,16,20.00
2014,06,21,16,17,20.00
2014,06,21,16,18,20.00
2014,06,21,16,19,20.00
2014,06,21,16,20,19.90
2014,06,21,16,21,19.90
2014,06,21,16,22,19.90
2014,06,21,16,23,19.90
2014,06,21,16,24,19.80
2014,06,21,16,25,19.80
2014,06,21,16,26,19.90
2014,06,21,16,27,19.90
2014,06,21,16,28,20.00
2014,06,21,16,29,19.90
2014,06,21,16,30,19.80
2014,06,21,16,31,19.70
2014,06,21,16,32,19.70
2014,06,21,16,33,19.70
2014,06,21,16,34,19.70
2014,06,21,16,35,19.70
2014,06,21,16,36,19.60
2014,06,21,16,37,19.60
2014,06,21,16,38,19.70
2014,06,21,16,39,19.70
2014,06,21,16,40,19.70
2014,06,21,16,41,19.80
2014,06,21,16,42,19.70
2014,06,21,16,43,19.70
2014,06,21,16,44,19.70
2014,06,21,16,45,19.70
2014,06,21,16,46,19.80
2014,06,21,16,47,19.80
2014,06,21,16,48,19.80
2014,06,21,16,49,19.80
2014,06,21,16,50,19.80
2014,06,21,16,51,19.90
2014,06,21,16,52,19.90
2014,06,21,16,53,20.00
2014,06,21,16,54,20.00
2014,06,21,16,55,20.00
2014,06,21,16,56,20.10
2014,06,21,16,57,20.10
2014,06,21,16,58,20.10
2014,06,21,16,59,20.10
2014,06,21,17,00,20.00
2014,06,21,17,01,20.00
2014,06,21,17,02,19.90
2014,06,21,17,03,19.90
2014,06,21,17,04,20.00
2014,06,21,17,05,20.00
2014,06,21,17,06,20.10
2014,06,21,17,07,20.20
2014,06,21,17,08,20.20
2014,06,21,17,09,20.20
2014,06,21,17,10,20.20
2014,06,21,17,11,20.10
2014,06,21,17,12,20.10
2014,06,21,17,13,20.10
2014,06,21,17,14,20.10
2014,06,21,17,15,20.10
2014,06,21,17,16,20.00
2014,06,21,17,17,20.00
2014,06,21,17,18,20.00
2014,06,21,17,19,20.10
2014,06,21,17,20,20.10
2014,06,21,17,21,20.20
2014,06,21,17,22,20.20
2014,06,21,17,23,20.30
2014,06,21,17,24,20.40
2014,06,21,17,25,20.30
2014,06,21,17,26,20.20
2014,06,21,17,27,20.10
2014,06,21,17,28,20.10
2014,06,21,17,29,20.10
2014,06,21,17,30,20.10
2014,06,21,17,31,20.10
2014,06,21,17,32,20.10
2014,06,21,17,33,20.10
2014,06,21,17,34,20.10
2014,06,21,17,35,20.10
2014,06,21,17,36,20.10
2014,06,21,17,37,20.20
2014,06,21,17,38,20.20
2014,06,21,17,39,20.20
2014,06,21,17,40,20.20
2014,06,21,17,41,20.20